C/2018 A6 ( Gibbs )

Japanese version
Home page
Updated on January 20, 2020

---------------------------------------------------------------------

* Profile

Discovery Date January 15, 2018
Magnitude 19.3 mag
Discoverer A. R. Gibbs (Mount Lemmon)

* Pictures

* Orbital Elements

Epoch 2019 July 16.0 TT = JDT 2458680.5
T 2019 July 14.26779 TT                                 Williams
q   3.0177638            (2000.0)            P               Q
n   0.01637791     Peri.  264.52775     -0.16525433     +0.93045698
a  15.3566714      Node   340.38604     +0.22092844     -0.28822648
e   0.8034884      Incl.   76.95487     -0.96118761     -0.22621959
P  60.2
From 411 observations 2017 Apr. 3-2019 Dec. 26, mean residual 0".4.

* Finding Charts

* Magnitudes Graph

        m1 = 4.2 + 5 log d + 15.0 log r

---------------------------------------------------------------------

The orbital elements are published on M.P.E.C. 2020-A105.
The charts are made with StellaNavigator Ver.10 (AstroArts).
The magnitudes graphs are made with Comet for Windows.

---------------------------------------------------------------------

Copyright(C) Seiichi Yoshida (comet@aerith.net). All rights reserved.